TimeCDT,TemperatureF,Dew PointF,Humidity,Sea Level PressureIn,VisibilityMPH,Wind Direction,Wind SpeedMPH,Gust SpeedMPH,PrecipitationIn,Events,Conditions,WindDirDegrees,DateUTC
12:15 AM,49.1,46.6,91,29.91,10.0,Calm,Calm,-,N/A,,Clear,0,2013-05-07 05:15:00
12:35 AM,48.0,46.2,93,29.91,10.0,Calm,Calm,-,N/A,,Clear,0,2013-05-07 05:35:00
12:55 AM,47.3,45.7,94,29.91,10.0,Calm,Calm,-,N/A,,Clear,0,2013-05-07 05:55:00
1:15 AM,46.6,45.5,96,29.91,10.0,Calm,Calm,-,N/A,,Clear,0,2013-05-07 06:15:00
1:35 AM,46.6,45.5,96,29.91,10.0,Calm,Calm,-,N/A,,Clear,0,2013-05-07 06:35:00
1:55 AM,46.4,45.5,97,29.91,10.0,Calm,Calm,-,N/A,,Mostly Cloudy,0,2013-05-07 06:55:00
2:15 AM,46.0,45.5,98,29.90,10.0,Calm,Calm,-,N/A,,Mostly Cloudy,0,2013-05-07 07:15:00
2:35 AM,45.7,45.0,97,29.90,10.0,Calm,Calm,-,N/A,,Mostly Cloudy,0,2013-05-07 07:35:00
2:55 AM,45.7,44.8,97,29.91,10.0,Calm,Calm,-,N/A,,Mostly Cloudy,0,2013-05-07 07:55:00
3:15 AM,46.2,45.5,97,29.92,10.0,Calm,Calm,-,N/A,,Overcast,0,2013-05-07 08:15:00
3:35 AM,46.4,45.7,97,29.92,10.0,Calm,Calm,-,N/A,,Overcast,0,2013-05-07 08:35:00
3:55 AM,46.6,45.7,97,29.92,10.0,Calm,Calm,-,N/A,,Overcast,0,2013-05-07 08:55:00
4:15 AM,46.9,46.0,97,29.92,10.0,Calm,Calm,-,N/A,,Overcast,0,2013-05-07 09:15:00
4:35 AM,47.3,46.0,95,29.92,10.0,Calm,Calm,-,N/A,,Overcast,0,2013-05-07 09:35:00
4:55 AM,47.3,46.0,95,29.93,10.0,Calm,Calm,-,N/A,,Overcast,0,2013-05-07 09:55:00
5:15 AM,47.3,46.2,96,29.93,10.0,Calm,Calm,-,N/A,,Mostly Cloudy,0,2013-05-07 10:15:00
5:35 AM,47.3,46.4,97,29.93,10.0,Calm,Calm,-,N/A,,Mostly Cloudy,0,2013-05-07 10:35:00
5:55 AM,47.3,46.4,97,29.94,10.0,Calm,Calm,-,N/A,,Mostly Cloudy,0,2013-05-07 10:55:00
6:15 AM,47.3,46.4,97,29.95,10.0,Calm,Calm,-,N/A,,Mostly Cloudy,0,2013-05-07 11:15:00
6:35 AM,47.7,46.8,97,29.95,10.0,Calm,Calm,-,N/A,,Mostly Cloudy,0,2013-05-07 11:35:00
6:55 AM,48.0,46.8,95,29.95,10.0,Calm,Calm,-,N/A,,Overcast,0,2013-05-07 11:55:00
7:15 AM,48.9,47.3,94,29.96,10.0,Calm,Calm,-,N/A,,Mostly Cloudy,0,2013-05-07 12:15:00
7:35 AM,49.5,47.3,92,29.96,10.0,Calm,Calm,-,N/A,,Scattered Clouds,0,2013-05-07 12:35:00
7:55 AM,51.3,48.2,89,29.96,10.0,Calm,Calm,-,N/A,,Mostly Cloudy,0,2013-05-07 12:55:00
8:15 AM,52.7,48.4,85,29.97,10.0,Calm,Calm,-,N/A,,Mostly Cloudy,0,2013-05-07 13:15:00
8:35 AM,55.4,49.3,80,29.97,10.0,Calm,Calm,-,N/A,,Overcast,0,2013-05-07 13:35:00
8:55 AM,55.8,50.0,81,29.97,10.0,Calm,Calm,-,N/A,,Overcast,0,2013-05-07 13:55:00
9:15 AM,56.1,49.1,77,29.97,10.0,Calm,Calm,-,N/A,,Overcast,0,2013-05-07 14:15:00
9:35 AM,57.2,49.8,76,29.97,10.0,NE,5.8,-,N/A,,Overcast,40,2013-05-07 14:35:00
9:55 AM,57.4,50.4,77,29.97,10.0,NE,5.8,-,N/A,,Overcast,50,2013-05-07 14:55:00
10:15 AM,58.1,50.5,76,29.97,10.0,NE,4.6,-,N/A,,Overcast,50,2013-05-07 15:15:00
10:35 AM,57.9,50.5,76,29.98,10.0,Calm,Calm,-,N/A,,Overcast,0,2013-05-07 15:35:00
10:55 AM,58.1,50.5,76,29.98,10.0,Calm,Calm,-,N/A,,Overcast,0,2013-05-07 15:55:00
11:15 AM,58.1,50.9,77,29.98,10.0,NE,6.9,-,N/A,,Overcast,50,2013-05-07 16:15:00
11:35 AM,57.6,50.9,78,29.98,10.0,ENE,5.8,-,N/A,,Overcast,60,2013-05-07 16:35:00
11:55 AM,57.7,51.1,78,29.98,10.0,ENE,5.8,-,N/A,,Overcast,70,2013-05-07 16:55:00
12:15 PM,57.4,50.9,79,29.98,10.0,East,4.6,-,N/A,,Overcast,90,2013-05-07 17:15:00
12:35 PM,57.6,50.9,78,29.97,10.0,Calm,Calm,-,N/A,,Light Drizzle,0,2013-05-07 17:35:00
12:55 PM,57.9,50.9,77,29.97,10.0,Calm,Calm,-,N/A,,Overcast,0,2013-05-07 17:55:00
1:15 PM,57.6,50.9,78,29.97,10.0,Calm,Calm,-,N/A,,Overcast,0,2013-05-07 18:15:00
1:35 PM,58.3,51.6,78,29.97,10.0,Calm,Calm,-,N/A,Rain,Light Rain,0,2013-05-07 18:35:00
1:55 PM,60.4,52.0,74,29.96,10.0,Calm,Calm,-,N/A,,Overcast,0,2013-05-07 18:55:00
2:15 PM,62.6,51.8,68,29.95,10.0,Calm,Calm,-,N/A,,Overcast,0,2013-05-07 19:15:00
2:35 PM,63.3,50.0,62,29.95,10.0,North,6.9,-,N/A,,Overcast,10,2013-05-07 19:35:00
2:55 PM,63.5,49.6,61,29.94,10.0,West,3.5,-,N/A,,Overcast,280,2013-05-07 19:55:00
3:15 PM,64.6,50.2,60,29.94,10.0,NW,5.8,-,N/A,,Overcast,320,2013-05-07 20:15:00
3:35 PM,64.2,52.3,65,29.94,10.0,WNW,4.6,-,N/A,,Scattered Clouds,300,2013-05-07 20:35:00
3:55 PM,64.8,51.1,61,29.93,10.0,WNW,3.5,-,N/A,,Clear,290,2013-05-07 20:55:00
4:15 PM,65.5,50.5,58,29.93,10.0,NNE,4.6,-,N/A,,Mostly Cloudy,30,2013-05-07 21:15:00
4:35 PM,66.7,50.7,56,29.93,10.0,North,5.8,-,N/A,,Scattered Clouds,350,2013-05-07 21:35:00
4:55 PM,66.4,50.5,57,29.93,10.0,NNW,5.8,-,N/A,,Mostly Cloudy,330,2013-05-07 21:55:00
5:15 PM,64.6,50.9,61,29.93,10.0,NW,4.6,-,N/A,,Overcast,320,2013-05-07 22:15:00
5:35 PM,64.0,50.9,62,29.93,10.0,NW,5.8,-,N/A,,Overcast,320,2013-05-07 22:35:00
5:55 PM,63.7,51.8,65,29.93,10.0,WNW,3.5,-,N/A,,Overcast,290,2013-05-07 22:55:00
6:15 PM,62.2,52.0,69,29.94,10.0,West,4.6,-,N/A,,Scattered Clouds,280,2013-05-07 23:15:00
6:55 PM,61.7,52.0,70,29.94,10.0,Calm,Calm,-,N/A,,Mostly Cloudy,0,2013-05-07 23:55:00
7:15 PM,60.8,52.2,73,29.94,10.0,Calm,Calm,-,N/A,,Overcast,0,2013-05-08 00:15:00
7:35 PM,60.1,52.7,77,29.95,10.0,Calm,Calm,-,N/A,,Mostly Cloudy,0,2013-05-08 00:35:00
7:55 PM,59.5,53.2,80,29.95,10.0,Calm,Calm,-,N/A,Rain,Light Rain,0,2013-05-08 00:55:00
8:15 PM,58.3,54.5,87,29.96,7.0,Calm,Calm,-,0.01,Rain,Rain,0,2013-05-08 01:15:00
8:35 PM,57.6,55.0,91,29.97,10.0,Calm,Calm,-,0.02,Rain,Light Rain,0,2013-05-08 01:35:00
8:55 PM,57.2,56.1,96,29.97,10.0,Calm,Calm,-,0.02,,Overcast,0,2013-05-08 01:55:00
9:15 PM,57.2,55.2,93,29.97,10.0,Calm,Calm,-,N/A,,Light Drizzle,0,2013-05-08 02:15:00
9:35 PM,56.7,55.4,96,29.98,10.0,Calm,Calm,-,N/A,,Overcast,0,2013-05-08 02:35:00
9:55 PM,56.5,55.9,98,29.98,10.0,Calm,Calm,-,N/A,,Overcast,0,2013-05-08 02:55:00
10:15 PM,56.5,55.6,97,29.97,10.0,Calm,Calm,-,N/A,,Overcast,0,2013-05-08 03:15:00
10:35 PM,55.8,55.2,98,29.97,10.0,Calm,Calm,-,N/A,,Overcast,0,2013-05-08 03:35:00
10:55 PM,55.6,55.2,99,29.97,7.0,Calm,Calm,-,N/A,,Overcast,0,2013-05-08 03:55:00
11:15 PM,55.2,54.7,98,29.97,7.0,Calm,Calm,-,N/A,,Overcast,0,2013-05-08 04:15:00
11:35 PM,54.7,54.5,99,29.97,7.0,Calm,Calm,-,N/A,,Overcast,0,2013-05-08 04:35:00
11:55 PM,54.5,54.5,100,29.97,5.0,Calm,Calm,-,N/A,,Overcast,0,2013-05-08 04:55:00